星链-32345 (STARLINK-32345)

导读 | 豆包AI

STARLINK-32345是美国太空探索技术公司(SpaceX)星链互联网卫星星座的一员,于2024年8月31日发射入轨。星链项目旨在构建全球卫星互联网星座,为全球偏远地区、海洋空域等提供高速互联网接入服务。作为低轨卫星,该卫星加入星座后,进一步提升了星链系统的全球覆盖能力和服务容量,推进SpaceX星链组网进程。

基本信息
目录编号:
60920
目录名称:
STARLINK-32345
国际标识:
2024-154T
轨道中心:
EARTH
卫星名称:
星链-32345
卫星全名:
星链-32345 (STARLINK-32345)
卫星状态:
在轨 (已飞行608 天)
发射日期:
2024-08-31 UTC
国别 :
美国 (US)
星等 :
--
轨道信息
数据来源 国际轨道数据
星历时间: 2026-04-30T20:03:25+0800
15小时前
查看轨道信息
半长轴: 6853.385km
偏心率: 0.0001437
轨道倾角: 53.162°
近地点辐角 109.691°
升交点赤经 43.461°
平近点角 250.424°
近地点: 474.263km
远地点: 476.233km
周期: 94.106分钟
每日圈数: 15.30189
详细信息
固有亮度:
5
最大亮度:
2.5
卫星平台:
Starlink V1.0
覆盖范围:
全球
运营商:
太空探索技术公司
运营商所在国:
美国
制造商(研发单位):
太空探索技术公司
制造商所在国:
美国
使用方式:
暂无
卫星简介
Starlink 计划是 SpaceX 推出的全球卫星互联网项目,通过发射低轨道卫星,为全球尤其是偏远地区提供高速、低延迟的互联网服务。自 2019 年起,Starlink 已部署数千颗卫星,旨在缩小全球数字鸿沟,推动互联网普及。该项目还为军事、航空等行业提供通信支持,带来广泛经济效益。
2D轨道图
3D轨道图
轨道高度分析图
轨道倾角分析图
轨道综合分析图
查看轨道综合分析图